Regional Weather Roundup
Issued by NWS

Home | Current Version | Previous Version | Text Only | Print | Product List | Glossary On
Versions: 1 2 3 4 5 6 7 8 9 10 11 12 13 14 15 16 17 18 19 20 21 22 23 24 25 26 27 28 29 30 31 32 33 34 35 36 37 38 39 40 41 42 43 44 45 46 47 48 49 50
000
ASUS44 KMEG 011110
RWRTN
TENNESSEE HOURLY STATE WEATHER ROUNDUP
NATIONAL WEATHER SERVICE MEMPHIS TN
600 AM CDT WED JUL 01 2015

TNZ002-004-019-021-049-052-054-088>092-011200-
WEST TENNESSEE

CITY           SKY/WX    TMP DP  RH WIND       PRES   REMARKS
MEMPHIS INTL   MOCLDY    76  71  85 SW5       29.96R
NWS MEMPHIS      N/A     74 N/A N/A MISG        N/A
JACKSON        MOCLDY    75  72  90 SW3       29.94R
DYERSBURG        N/A    N/A N/A N/A MISG        N/A
PARIS          MOCLDY    72  70  94 SW5       29.95R
LEXINGTON      PTCLDY    72  72 100 CALM      29.96R
$$

TNZ008-025-027-028-033-062-065-066-011200-
NORTH MIDDLE TENNESSEE

CITY           SKY/WX    TMP DP  RH WIND       PRES   REMARKS
NASHVILLE      MOCLDY    73  71  93 SW3       29.95R
CLARKSVILLE    PTCLDY    73  70  90 SW7       29.93R
SMYRNA         PTCLDY    72  70  93 CALM      29.96R
COOKEVILLE     PTCLDY    72  72 100 CALM      29.97S
CROSSVILLE     CLOUDY    71  67  87 SW5       30.02S FOG
$$

TNZ061-075-076-078-094-096-097-011200-
SOUTH MIDDLE TENNESSEE

CITY           SKY/WX    TMP DP  RH WIND       PRES   REMARKS
FAYETTEVILLE   CLOUDY    70  70 100 SW3       30.00R
TULLAHOMA      PTCLDY    70  68  94 SW5       30.00S
WINCHESTER     CLOUDY    72  70  94 SW3       30.01R
MCMINNVILLE    PTCLDY    72  72 100 S5        29.99R
COLUMBIA       PTCLDY    72  72 100 SW3       29.96R
SHELBYVILLE    CLEAR     70  70 100 S5        29.99R
$$

TNZ017-018-042-046-047-011200-
NORTHEAST TENNESSEE

CITY           SKY/WX    TMP DP  RH WIND       PRES   REMARKS
TRI CITIES     CLOUDY    67  64  90 CALM      30.01R
ELIZABETHTON   CLOUDY    66  63  88 W3        30.02R
$$

TNZ012-013-036-069-073-074-011200-
CENTRAL EAST TENNESSEE

CITY           SKY/WX    TMP DP  RH WIND       PRES   REMARKS
KNOXVILLE      CLOUDY    69  67  93 SW10      29.98R
OAK RIDGE      CLOUDY    70  68  93 CALM      30.00R FOG
GATLINBURG     PTSUNNY   68  66  94 CALM      29.99S
MORRISTOWN     CLOUDY    70  68  94 W7        30.02R
$$

TNZ083-085-099-011200-
SOUTHEAST TENNESSEE

CITY           SKY/WX    TMP DP  RH WIND       PRES   REMARKS
CHATTANOOGA    CLOUDY    73  68  84 CALM      30.00R
$$

SKY/WX REPORTED AS FAIR MEANS FEW OR NO CLOUDS BELOW
12 THOUSAND FEET.




USA.gov is the U.S. government's official web portal to all federal, state and local government web resources and services.